Home > Weather > Ettlingen > Past weeks

Flag for Germany Past Weather in Ettlingen, Baden-Württemberg, Germany — Yesterday and Last 2 Weeks

Now
72 °F

Sunny.


Feels Like: 71 °F
Forecast: 66 / 81 °F
Wind: 3 mph from South

Location: Karlsruhe - Baden Wurttemberg

Current Time: Jul 24, 2016 at 10:40:39 PM

Latest Report: Jul 24, 2016 at 9:50 PM


Visibility: 6 mi

Pressure: 30.09 "Hg

Humidity: 83%

Dew Point: 66 °F

Location of EttlingenLocation

Past Weather in Ettlingen — Graph

°F

Ettlingen Temperature Yesterday

Maximum temperature yesterday: 77 °F (at 2:50 PM)
Minimum temperature yesterday: 64 °F (at 4:50 AM)
Average temperature yesterday: 71 °F

High & Low Weather Summary for the Past Weeks

 TemperatureHumidityPressure
High93 °F (Jul 20, 3:50 PM)100% (Jul 10, 5:50 AM)30.33 "Hg (Jul 10, 5:50 AM)
Low50 °F (Jul 16, 4:50 AM)28% (Jul 20, 6:50 PM)29.83 "Hg (Jul 10, 6:50 PM)
Average71 °F72%30.07 "Hg
* Reported Jul 9 9:20 PM — Jul 24 9:20 PM, Ettlingen, Weather by CustomWeather, © 2016

Note: Actual official high and low records may vary slightly from our data, if they occured in-between our weather recording intervals... More about our weather records

Advertising

Ettlingen Weather History for the Previous 24 Hours

Scroll right to see more
 ConditionsComfort  
Time TempWeatherWind HumidityBarometerVisibility
9:20 PM
Sun, Jul 24
73 °FSunny.5 mph78%30.07 "Hg10 mi
8:50 PM75 °FSunny.3 mph74%30.07 "Hg10 mi
8:20 PM75 °FPassing clouds.3 mph78%30.07 "HgN/A
7:50 PM77 °FPassing clouds.5 mph69%30.07 "HgN/A
7:20 PM77 °FScattered clouds.7 mph69%30.07 "HgN/A
6:50 PM75 °FPassing clouds.6 mph74%30.07 "HgN/A
6:20 PM79 °FPassing clouds.5 mph61%30.07 "HgN/A
5:50 PM81 °FPassing clouds.5 mph54%30.07 "HgN/A
5:20 PM79 °FPassing clouds.6 mph58%30.07 "HgN/A
4:50 PM79 °FPassing clouds.6 mph58%30.07 "HgN/A
4:20 PM79 °FPassing clouds.7 mph65%30.07 "HgN/A
3:50 PM79 °FPassing clouds.8 mph65%30.07 "HgN/A
3:20 PM79 °FSunny.5 mph61%30.09 "Hg10 mi
2:50 PM79 °FScattered clouds.3 mph65%30.09 "HgN/A
2:20 PM77 °FScattered clouds.5 mph69%30.09 "HgN/A
1:50 PM75 °FScattered clouds.6 mph74%30.09 "HgN/A
1:20 PM77 °FScattered clouds.5 mph69%30.09 "HgN/A
12:50 PM75 °FScattered clouds.5 mph74%30.09 "HgN/A
12:20 PM75 °FScattered clouds.5 mph74%30.09 "Hg5 mi
11:50 AM73 °FBroken clouds.2 mph83%30.09 "Hg5 mi
11:20 AM75 °FBroken clouds.3 mph78%30.09 "Hg5 mi
10:50 AM72 °FBroken clouds.3 mph83%30.09 "Hg4 mi
10:20 AM70 °FBroken clouds.5 mph88%30.09 "Hg4 mi
9:50 AM70 °FPartly sunny.3 mph88%30.09 "Hg4 mi
9:20 AM70 °FPartly sunny.5 mph88%30.09 "Hg4 mi
8:50 AM70 °FPartly sunny.3 mph88%30.09 "Hg4 mi
8:20 AM68 °FBroken clouds.3 mph94%30.09 "Hg4 mi
7:50 AM68 °FBroken clouds.3 mph94%30.09 "Hg4 mi
7:20 AM68 °FLight rain. Broken clouds.5 mph94%30.09 "Hg4 mi
6:50 AM66 °FPassing clouds.3 mph100%30.09 "Hg4 mi
6:20 AM66 °FPartly cloudy.6 mph94%30.09 "Hg6 mi
5:50 AM66 °FPartly cloudy.6 mph100%30.09 "Hg5 mi
5:20 AM66 °FPartly cloudy.5 mph100%30.09 "Hg6 mi
4:50 AM66 °FPartly cloudy.6 mph100%30.09 "Hg6 mi
4:20 AM66 °FPartly cloudy.5 mph100%30.09 "Hg6 mi
3:20 AM66 °FSprinkles. Partly cloudy.5 mph100%30.09 "Hg3 mi
2:50 AM68 °FSprinkles. Partly cloudy.7 mph94%30.09 "Hg3 mi
12:50 AM68 °FPassing clouds.6 mph94%30.09 "HgN/A
12:20 AM70 °FClear.2 mph88%30.09 "Hg10 mi
11:50 PM
Sat, Jul 23
68 °FClear.2 mph94%30.09 "Hg10 mi
11:20 PM68 °FClear.2 mph94%30.07 "Hg10 mi
10:50 PM70 °FClear.2 mph88%30.07 "Hg10 mi
10:20 PM70 °FClear.2 mph88%30.07 "Hg10 mi
Weather by CustomWeather, © 2016

See weather overviewHow to use our weather pages